User: anonymous
Location: Unspecified
(0.0000°N, 0.0000°E)
Time: 22:19:18
(UTC+00:00)
Language:

Optus B1 - Orbit

View from above orbital plane
View from above orbital plane
View from above satellite
View from above satellite

Ground track
Ground track

The orbit data is extracted from the following two-line orbital elements,

1 22087U 92054A   14273.45118363  .00000069  00000-0  00000+0 0  9946
2 22087 007.0852 054.5939 0009475 050.2613 293.1317 00.99204016 92266
Epoch (UTC): 30 September 2014 10:49:42
Eccentricity: 0.0009475
inclination: 7.0852°
perigee height: 36048 km
apogee height: 36128 km
right ascension of ascending node: 54.5939°
argument of perigee: 50.2613°
revolutions per day: 0.99204016
mean anomaly at epoch: 293.1317°
orbit number at epoch: 9226

The dashed part of the orbit path shows where the satellite is in the earth's shadow,  

DLR